Regional Weather Roundup
Issued by NWS

Home | Current Version | Previous Version | Graphics & Text | Print | Product List | Glossary On
Versions: 1 2 3 4 5 6 7 8 9 10 11 12 13 14 15 16 17 18 19 20 21 22 23 24 25 26 27 28 29 30 31 32 33 34 35 36 37 38 39 40 41 42 43 44 45 46 47 48 49 50
000
ASUS44 KMEG 190710
RWRTN
TENNESSEE HOURLY STATE WEATHER ROUNDUP
NATIONAL WEATHER SERVICE MEMPHIS TN
200 AM CDT SUN APR 19 2015

TNZ002-004-019-021-049-052-054-088>092-190800-
WEST TENNESSEE

CITY           SKY/WX    TMP DP  RH WIND       PRES   REMARKS
MEMPHIS INTL   CLOUDY    66  62  87 SE3       29.74F
NWS MEMPHIS      N/A     65 N/A N/A MISG        N/A
JACKSON        CLOUDY    65  62  90 CALM      29.76F
DYERSBURG      CLOUDY    64  54  68 CALM      29.76F
UNION CITY     CLOUDY    64  32  29 S3        29.75F
PARIS          CLOUDY    63  63 100 SE6       29.78F
LEXINGTON      MOCLDY    64  63  94 CALM      29.77F
SAVANNAH       CLOUDY    64  32  29 CALM      29.77F
$$

TNZ008-025-027-028-033-062-065-066-190800-
NORTH MIDDLE TENNESSEE

CITY           SKY/WX    TMP DP  RH WIND       PRES   REMARKS
NASHVILLE      CLOUDY    66  63  90 SE5       29.81F
CLARKSVILLE    LGT RAIN  66  60  81 E6        29.79F
SMYRNA         CLOUDY    64  63  97 CALM      29.83F
COOKEVILLE     MOCLDY    66  63  88 CALM      29.84F
CROSSVILLE     CLOUDY    63  58  83 CALM      29.89F
$$

TNZ061-075-076-078-094-096-097-190800-
SOUTH MIDDLE TENNESSEE

CITY           SKY/WX    TMP DP  RH WIND       PRES   REMARKS
FAYETTEVILLE     N/A     63  63 100 SE5       29.81F
TULLAHOMA      PTCLDY    64  61  88 CALM      29.84F
WINCHESTER     MOCLDY    66  63  88 SE3       29.83F
MCMINNVILLE    MOCLDY    66  64  94 SE5       29.85F
COLUMBIA       CLOUDY    66  32  28 SE3       29.79F
SHELBYVILLE    MOCLDY    66  64  94 SE5       29.83F
$$

TNZ017-018-042-046-047-190800-
NORTHEAST TENNESSEE

CITY           SKY/WX    TMP DP  RH WIND       PRES   REMARKS
TRI CITIES     CLOUDY    60  59  96 CALM      29.93F
ELIZABETHTON   CLOUDY    63  55  77 E6        29.94F
$$

TNZ012-013-036-069-073-074-190800-
CENTRAL EAST TENNESSEE

CITY           SKY/WX    TMP DP  RH WIND       PRES   REMARKS
KNOXVILLE      CLOUDY    63  63 100 NE5       29.87F FOG
OAK RIDGE      CLOUDY    66  62  87 CALM      29.89F
GATLINBURG     CLOUDY    63  63 100 CALM      29.89F
MORRISTOWN     PTSUNNY   63  63 100 CALM      29.91F
$$

TNZ083-085-099-190800-
SOUTHEAST TENNESSEE

CITY           SKY/WX    TMP DP  RH WIND       PRES   REMARKS
CHATTANOOGA    CLOUDY    67  64  90 SE3       29.86F
$$

SKY/WX REPORTED AS FAIR MEANS FEW OR NO CLOUDS BELOW
12 THOUSAND FEET.



USA.gov is the U.S. government's official web portal to all federal, state and local government web resources and services.